Regional Weather Roundup
Issued by NWS

Home | Current Version | Previous Version | Graphics & Text | Print | Product List | Glossary Off
Versions: 1 2 3 4 5 6 7 8 9 10 11 12 13 14 15 16 17 18 19 20 21 22 23 24 25 26 27 28 29 30 31 32 33 34 35 36 37 38 39 40 41 42 43 44 45 46 47 48 49 50

000
ASUS43 KMKX 282200
RWRWI

WISCONSIN REGIONAL WEATHER ROUNDUP
NATIONAL WEATHER SERVICE MILWAUKEE/SULLIVAN WI
500 PM CDT WED JUN 28 2017

NOTE: "FAIR" INDICATES FEW OR NO CLOUDS BELOW 12,000 FEET WITH NO
SIGNIFICANT WEATHER AND/OR OBSTRUCTIONS TO VISIBILITY.

WIZ001-002-006>008-014>016-023>028-282300-
NORTHWEST WISCONSIN

CITY           SKY/WX    TMP DP  RH WIND       PRES   REMARKS
SUPERIOR ARPT  NOT AVBL
ASHLAND        CLOUDY    65  64  97 E5        29.57F
HAYWARD        CLOUDY    68  64  87 S6        29.55F
SIREN          HVY RAIN  71  66  84 S10G17    29.51F
CUMBERLAND     CLOUDY    68  64  88 SE10      29.54F
RICE LAKE      CLOUDY    71  65  83 SE12      29.57F
CHETEK         CLOUDY    71  67  85 SE9G16    29.56F
LADYSMITH      CLOUDY    68  66  94 SE8       29.61F
EAU CLAIRE     NOT AVBL
MENOMONIE      CLOUDY    73  67  83 S9        29.54S
NEW RICHMOND   LGT RAIN  70  66  89 S10G25    29.52F
OSCEOLA        RAIN      69  69 100 S3        29.56R
$$

WIZ003>005-009-010-017-018-282300-
NORTH CENTRAL WISCONSIN

CITY           SKY/WX    TMP DP  RH WIND       PRES   REMARKS
MANITOWISH WTR LGT RAIN  62  62 100 SE9       29.67S
ARBOR VITAE    LGT RAIN  63  61  94 S7        29.67S
WOODRUFF       LGT RAIN  63  61  94 S7        29.67S
RHINELANDER    LGT RAIN  61  61 100 S10       29.68F FOG
EAGLE RIVER    LGT RAIN  62  61  98 S8        29.69F
LAND O LAKES   LGT RAIN  63  61  93 S10G17    29.71S
PHILLIPS       RAIN      63  63 100 SE5       29.63F
TOMAHAWK       NOT AVBL
MEDFORD        CLOUDY    66  63  91 S15       29.63F
MERRILL        LGT RAIN  65  65 100 SE3       29.66F
$$

WIZ029-030-035-036-043>047-282300-
CENTRAL WISCONSIN

CITY           SKY/WX    TMP DP  RH WIND       PRES   REMARKS
WAUSAU         CLOUDY    66  64  93 S13       29.64F
MOSINEE        LGT RAIN  64  64 100 S15       29.67F
MARSHFIELD     CLOUDY    67  63  87 S12       29.62F
STEVENS POINT  CLOUDY    65  64  99 S10G22    29.69F
WAUPACA        CLOUDY    68  67  96 S10       29.71F
WAUTOMA        CLOUDY    67  66  97 S12       29.67F
WISC RAPIDS    CLOUDY    67  65  93 S8        29.65F
CAMP DOUGLAS   LGT RAIN  68  68 100 S6G18     29.61F
$$

WIZ011>013-019>022-031-037>040-048>050-282300-
NORTHEAST WISCONSIN

CITY           SKY/WX    TMP DP  RH WIND       PRES   REMARKS
ANTIGO         CLOUDY    63  62  99 S9        29.71F
SHAWANO        CLOUDY    70  64  83 S6        29.72F
OCONTO         CLOUDY    62  61  96 S6        29.75S
STURGEON BAY     N/A     60  58  92 S17G26    29.77S
GREEN BAY      RAIN      66  66 100 S14G21    29.73F FOG
MANITOWOC      TSTM      61  57  88 S9        29.81R FOG
APPLETON       LGT RAIN  64  64 100 SE15      29.71F
CLINTONVILLE   LGT RAIN  66  63  88 S9        29.71F
OSHKOSH        LGT RAIN  66  64  93 S12       29.71F FOG
$$

WIZ032>034-041-042-053>061-282300-
SOUTHWEST WISCONSIN

CITY           SKY/WX    TMP DP  RH WIND       PRES   REMARKS
LA CROSSE      CLOUDY    74  68  81 S12       29.60S
SPARTA         CLOUDY    68  66  91 SW6       29.64F
VIROQUA        CLOUDY    68  68 100 S18G35    29.62F
BOSCOBEL       TSTM      68  65  90 MISG      29.68S VSB 1/2
PRAIRIE DU CHI RAIN      73  67  79 NE3       29.66S
PLATTEVILLE    MOSUNNY   77  72  84 S17G24    29.71F
$$

WIZ056-057-062-063-064-067-068-282300-
SOUTH CENTRAL WISCONSIN

CITY           SKY/WX    TMP DP  RH WIND       PRES   REMARKS
REEDSBURG      DRIZZLE   69  69 100 S15G24    29.66F
BARABOO/DELLS  CLOUDY    69  66  92 S14G20    29.69F
LONE ROCK      CLOUDY    73  66  78 CALM      29.70F
MINERAL POINT  PTSUNNY   77  72  83 S12G18    29.72F
MADISON        CLOUDY    73  66  78 S17G23    29.72F
MIDDLETON      CLOUDY    75  67  77 S15       29.74F
WATERTOWN      CLOUDY    70  67  91 S14       29.77F
MONROE         CLOUDY    72  66  83 S14G22    29.76F
JANESVILLE     RAIN      73  70  88 S8        29.77F FOG
$$

WIZ051-052-058>065-066-070>072-282300-
SOUTHEAST WISCONSIN

CITY           SKY/WX    TMP DP  RH WIND       PRES   REMARKS
MILWAUKEE      LGT RAIN  70  66  87 S12       29.79S
WAUKESHA       LGT RAIN  66  63  88 SW9       29.81S
MILWAUKEE/TIMM HVY RAIN  66  63  88 SW6       29.81S
RACINE         HVY RAIN  67  63  87 S8        29.81F
KENOSHA        TSTM      70  66  87 S15G25    29.78F FOG
FOND DU LAC    CLOUDY    69  64  84 S14       29.74F
SHEBOYGAN      LGT RAIN  62  62 100 S9        29.78F FOG
WEST BEND      HVY RAIN  64  63  94 S9        29.80F
JUNEAU         RAIN      66  64  94 SW5       29.80R
$$

LSZ147-162-282300-
LAKE SUPERIOR

STATION/POSITION TIME  TEMP    WIND        PRES    WAVE
                       AIR SEA DIR/SP/G            HT/PER
                 (UTC) (F)     (DEG/KT/KT) (MB)    (FT/S)
W MID LAKE BUOY  2050   49 39   90/ 10/ 10 1004.2F   1
DEVILS ISLAND    2100   54     100/  9/ 10 1002.8F
PORT WING        2100   57      20/ 18/ 21 1001.0
SAXON HARBOR     2140   66     180/  4/  8 1001.7F
$$

LMZ867-665-643>646-282300-
LAKE MICHIGAN

STATION/POSITION TIME  TEMP    WIND        PRES    WAVE
                       AIR SEA DIR/SP/G            HT/PER
                 (UTC) (F)     (DEG/KT/KT) (MB)    (FT/S)
CHAMBERS ISLAND  2140   61     130/  8/ 12 1007.1F
S GREEN BAY BUOY 2130   63     170/ 17/ 21 1007.0F
N MID LAKE BUOY  2050   56 53  180/ 17/ 19 1009.8F   6/ 6
NORTHPORT PIER   2140   60     160/ 10/ 21 1008.1F
KEWAUNEE LAKESHO 2130   54     180/ 13/ 17 1008.1F
SHEBOYGAN LAKESH 2100   57     190/ 19/ 21 1009.6F
PORT WASHINGTON  2130   59     170/  2/  4 1010.2F
ATWATER BUOY     2009   59 51  160/ 16/ 19 1009.7F
MILWAUKEE LAKESH 2130   64     190/ 13/ 17   N/A
S MID LAKE BUOY  2050   66 60  170/ 19/ 23 1010.4F   5/ 6
KENOSHA   LAKESH 2100   62     180/  8/ 14 1009.8
$$

TC  - TEMPERATURE IN CELSIUS
VSB - VISIBILITY IN STATUTE MILES
WCI - WIND CHILL INDEX
HX  - HEAT INDEX





USA.gov is the U.S. government's official web portal to all federal, state and local government web resources and services.